STARLINK-34015 (63854 NORAD) Tracking and Keplerian Element Data

This shows tracking and keplerian element data for the satellite.

Feedback or suggestion? Click here.




ElementValue
Catalog63854
NameSTARLINK-34015
Epoch Orbit3554
Epoch Day353.49639149
Epoch Year2025
RAAN171.1193
Inclination43
Eccentricity0.0002065
Argument of Perigee286.1703
Mean Anonmoly73.8921
Mean Motion15.27592675
Decay Rate0.00015509
L11 63854U 25093U 25353.49639149 .00015509 00000+0 57171-3 0 9991
L22 63854 43.0000 171.1193 0002065 286.1703 73.8921 15.27592675 35544



Live tracking and technical data element details for STARLINK-34015 (NORAD 63854). STARLINK-34015 can be tracked NOW for your location showing map with azimuth and elevation plus other details from your city location.







IsCatalogInMostPopularTable: catalog: 63854, numindb: 10
Update: records affected: 1



GetName: 63854 STARLINK-34015

Hit Count: updated at: Tue, 21 Apr 2026 20:50:41 GMT